Precipitable_Water
0.73 0.74 0.73 0.73 0.72 0.71 0.71 0.70 0.70 0.70 0.69 0.66 0.63 0.61 0.61 0.62 0.63 0.63 0.62 0.60 0.56 0.57 0.60 0.60 0.61 0.62 0.62 0.64 0.64 0.63 0.59 0.51 0.47 0.42 0.36 0.34 0.55 0.55 0.54 0.55 0.51 0.49 0.46 0.45 0.44 0.43 0.40 0.40 0.39 0.42 0.40 0.38 0.37 0.37 0.40 0.39 0.40 0.39 0.33 0.33 0.33 0.29 0.31 0.27 0.28 0.30 0.28 0.29 0.29 0.30 0.31 0.29 0.28 0.29 0.32 0.34 0.37 0.39 0.49 0.50 0.49 0.53 0.69 0.78 0.78 0.94 1.02 0.99
0.70 0.72 0.72 0.72 0.72 0.72 0.71 0.70 0.70 0.70 0.70 0.68 0.63 0.61 0.61 0.62 0.63 0.63 0.63 0.62 0.59 0.57 0.59 0.61 0.62 0.62 0.63 0.63 0.64 0.63 0.56 0.49 0.41 0.40 0.36 0.55 0.51 0.52 0.49 0.50 0.49 0.45 0.43 0.41 0.39 0.37 0.37 0.37 0.38 0.38 0.35 0.33 0.40 0.35 0.37 0.33 0.37 0.34 0.33 0.33 0.32 0.29 0.29 0.30 0.26 0.29 0.28 0.29 0.31 0.31 0.29 0.30 0.29 0.29 0.30 0.30 0.31 0.37 0.45 0.45 0.46 0.53 0.62 0.64 0.91 1.11 0.91 0.95
0.67 0.70 0.71 0.72 0.73 0.73 0.71 0.70 0.70 0.69 0.69 0.67 0.63 0.61 0.61 0.62 0.63 0.63 0.64 0.64 0.62 0.61 0.62 0.62 0.64 0.64 0.64 0.64 0.63 0.62 0.53 0.41 0.42 0.32 0.37 0.51 0.48 0.45 0.43 0.42 0.43 0.42 0.39 0.38 0.38 0.37 0.38 0.37 0.40 0.37 0.33 0.31 0.35 0.36 0.34 0.31 0.32 0.31 0.32 0.30 0.30 0.34 0.35 0.33 0.28 0.31 0.30 0.29 0.29 0.29 0.29 0.30 0.30 0.32 0.31 0.31 0.29 0.35 0.40 0.47 0.45 0.51 0.56 0.56 0.69 1.16 0.99 0.88
0.64 0.68 0.71 0.73 0.74 0.73 0.71 0.71 0.70 0.69 0.68 0.66 0.62 0.61 0.60 0.61 0.62 0.63 0.64 0.65 0.64 0.64 0.65 0.66 0.66 0.65 0.64 0.64 0.64 0.61 0.53 0.42 0.39 0.52 0.63 0.57 0.49 0.41 0.40 0.38 0.40 0.40 0.39 0.39 0.39 0.41 0.42 0.40 0.39 0.35 0.32 0.31 0.33 0.36 0.31 0.31 0.25 0.30 0.28 0.28 0.29 0.34 0.35 0.31 0.33 0.30 0.28 0.29 0.30 0.29 0.29 0.29 0.29 0.31 0.32 0.37 0.39 0.39 0.41 0.45 0.50 0.51 0.51 0.61 0.71 0.94 1.00 0.91
0.62 0.66 0.70 0.74 0.76 0.74 0.72 0.71 0.69 0.68 0.67 0.64 0.62 0.60 0.60 0.61 0.62 0.63 0.64 0.65 0.65 0.66 0.67 0.68 0.68 0.66 0.64 0.65 0.62 0.60 0.57 0.53 0.47 0.58 0.62 0.51 0.43 0.36 0.35 0.35 0.37 0.38 0.38 0.39 0.42 0.43 0.41 0.39 0.36 0.32 0.30 0.31 0.34 0.36 0.35 0.34 0.31 0.28 0.30 0.33 0.30 0.37 0.35 0.32 0.32 0.26 0.27 0.25 0.29 0.28 0.27 0.27 0.30 0.33 0.34 0.42 0.35 0.53 0.55 0.51 0.56 0.53 0.59 0.63 0.72 0.85 0.89 0.96
0.59 0.64 0.69 0.74 0.76 0.74 0.73 0.72 0.69 0.68 0.67 0.64 0.62 0.61 0.60 0.61 0.62 0.63 0.65 0.65 0.66 0.67 0.69 0.69 0.69 0.65 0.65 0.64 0.64 0.64 0.59 0.34 0.60 0.59 0.63 0.55 0.42 0.35 0.31 0.34 0.35 0.37 0.39 0.40 0.42 0.42 0.36 0.34 0.33 0.29 0.30 0.32 0.33 0.32 0.31 0.32 0.32 0.27 0.31 0.34 0.29 0.38 0.31 0.35 0.31 0.28 0.29 0.26 0.26 0.27 0.29 0.29 0.28 0.37 0.53 0.54 0.49 0.60 0.59 0.54 0.56 0.71 0.65 0.71 0.80 0.95 0.84 0.95
0.56 0.60 0.67 0.72 0.76 0.75 0.74 0.74 0.70 0.68 0.67 0.65 0.63 0.62 0.61 0.62 0.62 0.63 0.64 0.65 0.66 0.68 0.69 0.69 0.69 0.65 0.64 0.66 0.66 0.67 0.60 0.67 0.67 0.71 0.63 0.57 0.45 0.34 0.32 0.33 0.35 0.33 0.39 0.39 0.39 0.36 0.34 0.32 0.31 0.28 0.29 0.31 0.34 0.32 0.30 0.31 0.31 0.28 0.30 0.33 0.35 0.36 0.33 0.33 0.31 0.30 0.28 0.28 0.26 0.27 0.25 0.27 0.27 0.35 0.55 0.49 0.64 0.66 0.68 0.65 0.60 0.65 0.66 0.75 0.95 0.90 0.91 0.73
0.53 0.56 0.62 0.69 0.75 0.76 0.75 0.75 0.73 0.69 0.67 0.66 0.63 0.63 0.62 0.61 0.63 0.63 0.64 0.65 0.65 0.67 0.69 0.70 0.68 0.65 0.65 0.60 0.58 0.53 0.54 0.60 0.69 0.72 0.62 0.54 0.45 0.35 0.32 0.33 0.31 0.32 0.36 0.38 0.39 0.33 0.33 0.30 0.28 0.31 0.29 0.30 0.34 0.32 0.32 0.29 0.31 0.28 0.31 0.35 0.33 0.36 0.37 0.35 0.33 0.30 0.29 0.29 0.28 0.27 0.27 0.26 0.42 0.54 0.61 0.51 0.60 0.64 0.69 0.74 0.64 0.66 0.67 0.75 0.80 0.81 0.85 0.87
0.51 0.54 0.57 0.64 0.71 0.76 0.76 0.75 0.75 0.73 0.69 0.67 0.64 0.64 0.64 0.63 0.63 0.64 0.64 0.64 0.66 0.67 0.68 0.70 0.67 0.67 0.69 0.68 0.57 0.56 0.58 0.74 0.80 0.71 0.65 0.55 0.46 0.36 0.34 0.28 0.30 0.28 0.32 0.38 0.39 0.36 0.32 0.30 0.30 0.31 0.28 0.30 0.34 0.31 0.32 0.28 0.28 0.32 0.32 0.35 0.35 0.37 0.35 0.38 0.34 0.32 0.30 0.30 0.29 0.28 0.27 0.29 0.42 0.52 0.53 0.59 0.60 0.76 0.85 0.81 0.71 0.53 0.64 0.75 0.75 0.80 0.78 0.90
0.49 0.52 0.55 0.60 0.65 0.72 0.75 0.75 0.74 0.74 0.73 0.70 0.67 0.65 0.66 0.65 0.64 0.66 0.66 0.65 0.66 0.68 0.68 0.66 0.68 0.69 0.65 0.56 0.57 0.47 0.68 0.83 0.75 0.67 0.59 0.55 0.45 0.33 0.32 0.31 0.27 0.28 0.31 0.34 0.36 0.33 0.32 0.31 0.30 0.36 0.34 0.32 0.31 0.29 0.29 0.27 0.28 0.33 0.35 0.35 0.36 0.39 0.39 0.35 0.35 0.32 0.32 0.30 0.31 0.30 0.32 0.32 0.44 0.42 0.51 0.65 0.64 0.83 0.97 0.74 0.66 0.72 0.77 0.75 0.76 0.86 0.82 0.78
0.48 0.50 0.52 0.56 0.62 0.67 0.73 0.74 0.74 0.72 0.72 0.71 0.70 0.68 0.66 0.66 0.65 0.66 0.68 0.68 0.67 0.69 0.69 0.67 0.68 0.70 0.58 0.58 0.54 0.53 0.80 0.78 0.77 0.65 0.59 0.53 0.41 0.32 0.30 0.35 0.30 0.29 0.32 0.35 0.33 0.34 0.34 0.32 0.35 0.38 0.35 0.28 0.30 0.29 0.30 0.29 0.31 0.31 0.32 0.34 0.36 0.37 0.38 0.37 0.34 0.32 0.35 0.31 0.33 0.40 0.44 0.45 0.57 0.58 0.55 0.68 0.70 0.81 1.02 0.86 0.70 0.74 0.84 0.86 0.90 0.88 0.84 0.87
0.47 0.48 0.51 0.53 0.59 0.64 0.70 0.72 0.73 0.72 0.70 0.69 0.70 0.69 0.67 0.67 0.67 0.69 0.69 0.69 0.69 0.69 0.70 0.71 0.71 0.67 0.62 0.57 0.58 0.64 0.79 0.79 0.72 0.66 0.54 0.52 0.40 0.35 0.35 0.41 0.34 0.29 0.33 0.33 0.32 0.31 0.32 0.36 0.39 0.36 0.29 0.33 0.28 0.31 0.33 0.39 0.38 0.32 0.33 0.31 0.35 0.38 0.37 0.36 0.35 0.38 0.35 0.34 0.39 0.48 0.45 0.41 0.45 0.47 0.63 0.72 0.72 0.85 1.16 1.00 0.92 0.76 0.80 0.82 0.82 0.81 0.99 0.94
0.47 0.47 0.49 0.52 0.55 0.60 0.66 0.71 0.71 0.71 0.71 0.70 0.68 0.69 0.68 0.69 0.71 0.70 0.70 0.69 0.70 0.70 0.71 0.71 0.70 0.66 0.63 0.48 0.63 0.72 0.76 0.73 0.66 0.59 0.52 0.51 0.47 0.42 0.40 0.45 0.39 0.31 0.33 0.32 0.30 0.32 0.34 0.38 0.38 0.31 0.33 0.32 0.30 0.30 0.35 0.37 0.36 0.37 0.35 0.32 0.31 0.36 0.37 0.39 0.34 0.39 0.34 0.30 0.38 0.44 0.31 0.39 0.46 0.59 0.62 0.62 0.59 0.72 1.01 1.07 0.90 0.81 0.77 0.81 0.84 0.90 0.99 1.05
0.47 0.45 0.47 0.51 0.52 0.56 0.61 0.67 0.72 0.70 0.69 0.72 0.71 0.70 0.71 0.70 0.71 0.73 0.70 0.72 0.71 0.71 0.70 0.70 0.68 0.64 0.64 0.64 0.68 0.72 0.73 0.73 0.65 0.54 0.51 0.48 0.47 0.44 0.42 0.44 0.38 0.33 0.36 0.37 0.39 0.40 0.39 0.39 0.35 0.32 0.33 0.30 0.29 0.37 0.35 0.36 0.38 0.31 0.34 0.35 0.32 0.32 0.33 0.39 0.38 0.38 0.34 0.40 0.40 0.39 0.30 0.36 0.53 0.66 0.74 0.63 0.63 0.69 0.99 0.89 0.87 0.80 0.78 0.84 0.71 0.92 0.93 1.04
0.49 0.47 0.45 0.50 0.52 0.53 0.57 0.62 0.69 0.71 0.70 0.70 0.74 0.73 0.72 0.70 0.70 0.71 0.72 0.68 0.70 0.71 0.67 0.71 0.71 0.70 0.58 0.67 0.72 0.76 0.74 0.68 0.56 0.49 0.51 0.46 0.45 0.44 0.41 0.44 0.38 0.37 0.40 0.39 0.39 0.39 0.36 0.35 0.34 0.30 0.28 0.34 0.36 0.34 0.30 0.32 0.35 0.35 0.29 0.30 0.36 0.34 0.35 0.40 0.41 0.41 0.36 0.43 0.45 0.39 0.32 0.37 0.60 0.63 0.75 0.81 0.75 0.63 0.94 0.95 0.94 0.73 0.79 0.82 0.80 0.90 0.96 1.14
0.49 0.48 0.46 0.48 0.52 0.53 0.54 0.58 0.64 0.70 0.69 0.70 0.72 0.75 0.73 0.72 0.71 0.71 0.71 0.71 0.68 0.69 0.74 0.63 0.68 0.64 0.57 0.65 0.70 0.77 0.62 0.50 0.50 0.52 0.50 0.48 0.47 0.42 0.41 0.39 0.41 0.39 0.37 0.34 0.34 0.35 0.35 0.33 0.29 0.32 0.32 0.36 0.36 0.35 0.34 0.34 0.36 0.36 0.32 0.31 0.32 0.37 0.38 0.38 0.42 0.44 0.44 0.41 0.41 0.43 0.37 0.47 0.53 0.63 0.76 0.86 0.74 0.71 0.77 0.84 0.88 0.77 0.82 0.88 0.87 0.99 1.00 1.15
0.49 0.48 0.47 0.46 0.52 0.54 0.53 0.55 0.62 0.66 0.68 0.69 0.72 0.75 0.77 0.74 0.74 0.74 0.71 0.70 0.67 0.71 0.75 0.72 0.75 0.77 0.53 0.63 0.74 0.57 0.52 0.50 0.57 0.51 0.47 0.49 0.46 0.40 0.40 0.37 0.36 0.35 0.34 0.33 0.34 0.35 0.35 0.33 0.36 0.35 0.36 0.32 0.37 0.37 0.34 0.36 0.36 0.38 0.38 0.34 0.36 0.35 0.39 0.37 0.45 0.45 0.45 0.44 0.39 0.39 0.44 0.47 0.52 0.58 0.61 0.63 0.63 0.71 0.75 0.73 0.89 0.94 0.84 0.90 0.95 1.03 1.05 1.01
0.49 0.48 0.48 0.48 0.50 0.55 0.54 0.54 0.60 0.64 0.65 0.66 0.69 0.71 0.72 0.76 0.75 0.71 0.66 0.66 0.73 0.68 0.72 0.78 0.71 0.66 0.62 0.79 0.52 0.49 0.53 0.50 0.50 0.49 0.45 0.45 0.42 0.38 0.38 0.36 0.35 0.34 0.35 0.33 0.35 0.32 0.35 0.33 0.38 0.32 0.35 0.37 0.39 0.34 0.32 0.32 0.36 0.40 0.41 0.43 0.39 0.40 0.38 0.37 0.37 0.41 0.43 0.46 0.37 0.37 0.38 0.53 0.64 0.66 0.67 0.69 0.69 0.62 0.69 0.85 0.92 0.91 0.90 0.90 0.89 0.92 0.95 0.98
0.51 0.49 0.48 0.49 0.49 0.54 0.53 0.55 0.58 0.64 0.65 0.66 0.68 0.75 0.73 0.80 0.75 0.72 0.67 0.60 0.57 0.50 0.51 0.53 0.54 0.45 0.37 0.54 0.55 0.52 0.49 0.51 0.50 0.45 0.40 0.39 0.39 0.36 0.37 0.38 0.36 0.34 0.30 0.31 0.32 0.38 0.37 0.36 0.38 0.35 0.32 0.36 0.39 0.39 0.34 0.35 0.40 0.39 0.40 0.42 0.43 0.39 0.39 0.39 0.41 0.44 0.43 0.39 0.38 0.34 0.32 0.32 0.56 0.65 0.64 0.64 0.63 0.55 0.59 0.78 0.80 0.84 0.81 0.80 0.83 0.86 0.88 0.92
0.50 0.50 0.49 0.49 0.50 0.55 0.53 0.53 0.57 0.61 0.65 0.67 0.79 0.85 0.83 0.65 0.55 0.51 0.61 0.61 0.48 0.52 0.56 0.58 0.58 0.56 0.55 0.55 0.51 0.51 0.53 0.51 0.41 0.42 0.36 0.38 0.34 0.35 0.34 0.34 0.33 0.34 0.31 0.29 0.34 0.38 0.42 0.33 0.32 0.33 0.37 0.39 0.45 0.45 0.46 0.44 0.39 0.37 0.35 0.35 0.35 0.27 0.27 0.32 0.34 0.39 0.43 0.37 0.36 0.36 0.36 0.32 0.33 0.43 0.54 0.63 0.67 0.54 0.56 0.68 0.69 0.76 0.75 0.73 0.74 0.82 0.85 0.94
0.45 0.47 0.48 0.49 0.51 0.54 0.56 0.52 0.53 0.59 0.63 0.63 0.65 0.67 0.51 0.51 0.47 0.45 0.51 0.54 0.54 0.56 0.53 0.59 0.59 0.54 0.54 0.54 0.54 0.49 0.42 0.42 0.44 0.40 0.36 0.39 0.36 0.34 0.31 0.32 0.30 0.28 0.33 0.37 0.38 0.43 0.42 0.35 0.33 0.34 0.37 0.40 0.46 0.43 0.40 0.37 0.36 0.32 0.27 0.26 0.25 0.29 0.30 0.36 0.37 0.40 0.42 0.37 0.34 0.34 0.30 0.27 0.35 0.48 0.51 0.59 0.59 0.48 0.49 0.62 0.63 0.73 0.78 0.74 0.72 0.73 0.80 0.94
0.41 0.41 0.43 0.46 0.51 0.55 0.60 0.56 0.51 0.55 0.60 0.63 0.60 0.53 0.51 0.53 0.66 0.77 0.66 0.45 0.54 0.55 0.54 0.55 0.56 0.49 0.54 0.55 0.53 0.49 0.46 0.40 0.38 0.43 0.44 0.40 0.39 0.32 0.33 0.31 0.32 0.32 0.38 0.42 0.39 0.38 0.37 0.32 0.35 0.35 0.38 0.40 0.42 0.40 0.41 0.38 0.33 0.30 0.27 0.29 0.29 0.32 0.32 0.36 0.39 0.39 0.38 0.34 0.32 0.31 0.31 0.36 0.40 0.48 0.52 0.58 0.56 0.47 0.52 0.63 0.69 0.69 0.72 0.73 0.73 0.75 0.78 0.88
0.39 0.37 0.35 0.40 0.46 0.54 0.60 0.62 0.60 0.55 0.58 0.63 0.45 0.43 0.44 0.57 0.66 0.69 0.59 0.46 0.40 0.54 0.53 0.51 0.46 0.43 0.45 0.49 0.51 0.50 0.41 0.40 0.41 0.45 0.45 0.40 0.39 0.39 0.39 0.37 0.35 0.37 0.40 0.42 0.38 0.36 0.31 0.37 0.40 0.42 0.43 0.36 0.34 0.37 0.34 0.32 0.29 0.28 0.30 0.29 0.28 0.33 0.33 0.34 0.40 0.42 0.43 0.38 0.33 0.35 0.30 0.27 0.28 0.32 0.48 0.61 0.62 0.58 0.60 0.65 0.70 0.69 0.69 0.69 0.71 0.74 0.79 0.81
0.40 0.36 0.31 0.33 0.37 0.49 0.58 0.61 0.67 0.65 0.58 0.61 0.47 0.38 0.51 0.65 0.67 0.68 0.51 0.36 0.37 0.48 0.45 0.47 0.44 0.43 0.42 0.44 0.51 0.45 0.35 0.45 0.41 0.45 0.50 0.45 0.36 0.44 0.36 0.39 0.40 0.39 0.35 0.38 0.41 0.36 0.31 0.36 0.46 0.39 0.34 0.37 0.34 0.31 0.31 0.30 0.28 0.31 0.31 0.30 0.30 0.31 0.32 0.30 0.30 0.38 0.40 0.37 0.34 0.30 0.28 0.29 0.32 0.33 0.46 0.62 0.65 0.62 0.72 0.70 0.65 0.65 0.74 0.77 0.78 0.79 0.82 0.86
0.42 0.36 0.31 0.32 0.31 0.41 0.51 0.65 0.60 0.62 0.58 0.63 0.47 0.45 0.47 0.63 0.67 0.67 0.47 0.36 0.35 0.42 0.51 0.45 0.44 0.43 0.47 0.55 0.50 0.37 0.41 0.46 0.44 0.47 0.49 0.46 0.40 0.38 0.40 0.41 0.34 0.31 0.35 0.35 0.34 0.33 0.32 0.37 0.35 0.34 0.35 0.33 0.31 0.30 0.31 0.30 0.25 0.25 0.29 0.30 0.31 0.31 0.31 0.33 0.33 0.30 0.28 0.27 0.29 0.26 0.22 0.24 0.38 0.45 0.47 0.58 0.55 0.57 0.71 0.58 0.53 0.59 0.67 0.71 0.70 0.75 0.83 0.91
0.44 0.38 0.31 0.32 0.32 0.36 0.55 0.61 0.43 0.48 0.53 0.53 0.49 0.48 0.47 0.63 0.71 0.64 0.46 0.33 0.36 0.49 0.45 0.36 0.40 0.39 0.51 0.47 0.48 0.38 0.45 0.39 0.44 0.50 0.51 0.50 0.48 0.42 0.42 0.36 0.37 0.30 0.33 0.33 0.32 0.31 0.31 0.34 0.32 0.31 0.31 0.30 0.27 0.24 0.26 0.28 0.24 0.23 0.28 0.33 0.32 0.31 0.29 0.30 0.29 0.27 0.22 0.19 0.27 0.37 0.26 0.25 0.38 0.35 0.46 0.51 0.52 0.56 0.64 0.59 0.57 0.57 0.61 0.67 0.69 0.72 0.79 0.85
0.46 0.41 0.33 0.32 0.33 0.38 0.41 0.42 0.32 0.46 0.40 0.42 0.49 0.48 0.50 0.67 0.79 0.56 0.36 0.32 0.25 0.45 0.43 0.42 0.36 0.45 0.48 0.46 0.45 0.40 0.29 0.35 0.46 0.50 0.47 0.50 0.39 0.46 0.32 0.38 0.38 0.32 0.31 0.31 0.26 0.22 0.28 0.27 0.29 0.28 0.28 0.27 0.26 0.23 0.29 0.29 0.26 0.23 0.30 0.28 0.29 0.29 0.29 0.27 0.25 0.24 0.22 0.25 0.24 0.26 0.24 0.23 0.24 0.27 0.32 0.50 0.53 0.58 0.61 0.64 0.62 0.62 0.60 0.66 0.65 0.73 0.76 0.82
0.45 0.44 0.36 0.34 0.34 0.37 0.31 0.35 0.40 0.29 0.28 0.38 0.43 0.46 0.56 0.68 0.66 0.61 0.33 0.16 0.23 0.50 0.44 0.46 0.45 0.54 0.45 0.44 0.44 0.36 0.38 0.43 0.32 0.42 0.45 0.47 0.40 0.40 0.33 0.32 0.32 0.33 0.39 0.32 0.24 0.32 0.33 0.30 0.32 0.31 0.30 0.28 0.25 0.30 0.29 0.32 0.28 0.28 0.33 0.30 0.28 0.28 0.26 0.24 0.22 0.21 0.22 0.21 0.19 0.22 0.25 0.21 0.21 0.23 0.30 0.40 0.49 0.53 0.55 0.61 0.63 0.63 0.63 0.66 0.68 0.74 0.77 0.79
0.42 0.44 0.40 0.34 0.37 0.40 0.45 0.43 0.40 0.27 0.31 0.38 0.40 0.43 0.52 0.72 0.56 0.39 0.37 0.21 0.40 0.40 0.60 0.40 0.55 0.44 0.41 0.39 0.37 0.37 0.38 0.39 0.31 0.40 0.45 0.44 0.44 0.37 0.33 0.37 0.35 0.34 0.36 0.34 0.29 0.31 0.33 0.32 0.32 0.31 0.28 0.25 0.25 0.28 0.29 0.32 0.27 0.29 0.29 0.27 0.25 0.24 0.23 0.21 0.18 0.17 0.17 0.17 0.16 0.19 0.22 0.19 0.18 0.20 0.31 0.46 0.49 0.52 0.59 0.59 0.58 0.60 0.62 0.63 0.64 0.68 0.74 0.79
0.36 0.39 0.42 0.40 0.38 0.46 0.43 0.59 0.49 0.32 0.36 0.38 0.38 0.38 0.51 0.63 0.53 0.29 0.28 0.11 0.34 0.27 0.35 0.39 0.36 0.37 0.37 0.32 0.31 0.34 0.31 0.35 0.36 0.39 0.40 0.39 0.41 0.41 0.34 0.35 0.32 0.31 0.29 0.33 0.30 0.30 0.28 0.33 0.32 0.29 0.28 0.27 0.24 0.24 0.26 0.28 0.28 0.26 0.22 0.20 0.20 0.20 0.20 0.22 0.21 0.21 0.21 0.17 0.17 0.19 0.21 0.19 0.16 0.20 0.50 0.46 0.51 0.56 0.59 0.56 0.56 0.63 0.60 0.62 0.65 0.69 0.70 0.71
0.30 0.31 0.35 0.42 0.36 0.33 0.36 0.34 0.32 0.32 0.36 0.38 0.34 0.40 0.51 0.52 0.39 0.35 0.25 0.35 0.33 0.37 0.37 0.33 0.29 0.35 0.34 0.29 0.28 0.35 0.32 0.34 0.33 0.34 0.31 0.35 0.33 0.34 0.34 0.31 0.34 0.28 0.25 0.25 0.24 0.24 0.26 0.29 0.30 0.30 0.34 0.34 0.31 0.25 0.24 0.24 0.24 0.24 0.23 0.23 0.22 0.20 0.21 0.21 0.22 0.25 0.21 0.19 0.24 0.28 0.29 0.31 0.24 0.26 0.36 0.58 0.60 0.59 0.58 0.50 0.50 0.53 0.57 0.59 0.62 0.68 0.73 0.72
0.28 0.31 0.33 0.36 0.38 0.46 0.36 0.27 0.27 0.34 0.35 0.34 0.35 0.36 0.51 0.39 0.40 0.26 0.23 0.47 0.23 0.34 0.34 0.35 0.38 0.33 0.33 0.35 0.30 0.33 0.32 0.34 0.34 0.32 0.29 0.29 0.29 0.30 0.32 0.28 0.32 0.25 0.24 0.27 0.28 0.33 0.30 0.30 0.32 0.32 0.37 0.36 0.33 0.28 0.29 0.29 0.26 0.27 0.28 0.27 0.24 0.22 0.21 0.19 0.21 0.19 0.21 0.20 0.24 0.28 0.27 0.23 0.22 0.25 0.29 0.55 0.54 0.54 0.55 0.52 0.55 0.56 0.60 0.60 0.61 0.63 0.73 0.78
0.28 0.33 0.37 0.38 0.45 0.39 0.45 0.42 0.42 0.35 0.33 0.33 0.29 0.35 0.37 0.33 0.19 0.29 0.32 0.30 0.32 0.36 0.39 0.36 0.33 0.34 0.32 0.31 0.30 0.31 0.34 0.31 0.37 0.36 0.35 0.34 0.31 0.33 0.33 0.33 0.35 0.32 0.24 0.29 0.27 0.26 0.27 0.29 0.30 0.32 0.37 0.39 0.36 0.30 0.30 0.25 0.27 0.26 0.27 0.28 0.26 0.23 0.21 0.18 0.19 0.20 0.19 0.21 0.22 0.20 0.22 0.18 0.21 0.23 0.32 0.31 0.36 0.52 0.59 0.53 0.56 0.62 0.66 0.64 0.61 0.62 0.66 0.71
0.26 0.33 0.36 0.42 0.47 0.48 0.42 0.51 0.44 0.38 0.31 0.27 0.32 0.37 0.32 0.29 0.22 0.23 0.25 0.32 0.32 0.37 0.38 0.34 0.30 0.30 0.28 0.23 0.25 0.32 0.32 0.36 0.34 0.32 0.32 0.33 0.33 0.30 0.28 0.33 0.31 0.30 0.30 0.29 0.24 0.25 0.21 0.20 0.25 0.26 0.25 0.37 0.35 0.33 0.33 0.27 0.25 0.26 0.27 0.24 0.24 0.21 0.18 0.15 0.16 0.14 0.14 0.15 0.19 0.26 0.22 0.19 0.20 0.24 0.32 0.35 0.45 0.48 0.53 0.51 0.54 0.65 0.68 0.71 0.69 0.64 0.66 0.70
0.30 0.35 0.42 0.46 0.52 0.47 0.53 0.41 0.46 0.44 0.34 0.29 0.29 0.34 0.26 0.21 0.28 0.32 0.36 0.35 0.35 0.32 0.29 0.31 0.26 0.24 0.22 0.22 0.22 0.23 0.25 0.30 0.38 0.35 0.33 0.35 0.33 0.34 0.29 0.29 0.30 0.29 0.29 0.24 0.29 0.30 0.27 0.25 0.29 0.33 0.35 0.36 0.34 0.37 0.35 0.31 0.27 0.25 0.23 0.21 0.17 0.19 0.23 0.20 0.21 0.20 0.21 0.23 0.21 0.21 0.19 0.22 0.20 0.23 0.24 0.24 0.29 0.49 0.53 0.50 0.53 0.58 0.63 0.69 0.67 0.63 0.65 0.70
0.35 0.38 0.48 0.17 0.15 0.19 0.36 0.45 0.51 0.47 0.36 0.31 0.34 0.26 0.31 0.31 0.31 0.35 0.36 0.42 0.35 0.28 0.26 0.23 0.17 0.15 0.17 0.17 0.19 0.22 0.29 0.26 0.32 0.31 0.30 0.27 0.30 0.29 0.31 0.31 0.30 0.31 0.34 0.30 0.32 0.32 0.32 0.27 0.32 0.35 0.36 0.36 0.36 0.37 0.37 0.36 0.23 0.27 0.23 0.22 0.26 0.31 0.28 0.24 0.23 0.25 0.24 0.22 0.17 0.20 0.20 0.22 0.22 0.21 0.24 0.26 0.25 0.45 0.54 0.51 0.54 0.58 0.61 0.66 0.63 0.63 0.64 0.69
0.33 0.42 0.34 0.19 0.14 0.15 0.28 0.42 0.51 0.51 0.44 0.39 0.35 0.29 0.29 0.33 0.37 0.36 0.36 0.35 0.31 0.28 0.25 0.18 0.23 0.23 0.28 0.27 0.28 0.31 0.38 0.39 0.38 0.37 0.31 0.32 0.31 0.34 0.34 0.35 0.39 0.38 0.34 0.35 0.34 0.38 0.29 0.27 0.31 0.30 0.29 0.36 0.40 0.39 0.39 0.39 0.37 0.31 0.23 0.22 0.23 0.24 0.25 0.24 0.18 0.19 0.17 0.14 0.14 0.17 0.16 0.18 0.20 0.17 0.30 0.30 0.33 0.49 0.54 0.55 0.58 0.62 0.63 0.63 0.60 0.62 0.64 0.66
0.33 0.48 0.48 0.21 0.16 0.14 0.27 0.42 0.49 0.52 0.59 0.48 0.41 0.31 0.30 0.30 0.39 0.35 0.34 0.34 0.30 0.25 0.21 0.20 0.20 0.27 0.25 0.27 0.28 0.26 0.38 0.29 0.35 0.35 0.32 0.36 0.31 0.44 0.39 0.39 0.46 0.44 0.44 0.45 0.36 0.36 0.35 0.25 0.26 0.27 0.26 0.30 0.37 0.39 0.37 0.40 0.40 0.33 0.29 0.33 0.23 0.18 0.19 0.25 0.24 0.17 0.17 0.16 0.18 0.20 0.22 0.22 0.23 0.22 0.31 0.40 0.41 0.52 0.55 0.57 0.58 0.64 0.66 0.65 0.61 0.60 0.65 0.66
0.36 0.49 0.38 0.28 0.19 0.16 0.26 0.39 0.43 0.45 0.44 0.40 0.37 0.36 0.36 0.34 0.34 0.33 0.37 0.35 0.32 0.26 0.20 0.26 0.26 0.35 0.33 0.29 0.29 0.31 0.33 0.29 0.33 0.32 0.30 0.36 0.29 0.54 0.44 0.42 0.42 0.43 0.43 0.41 0.37 0.38 0.37 0.27 0.25 0.30 0.30 0.34 0.34 0.32 0.27 0.33 0.41 0.41 0.38 0.34 0.35 0.29 0.25 0.22 0.21 0.19 0.17 0.15 0.16 0.16 0.18 0.17 0.22 0.23 0.28 0.36 0.48 0.50 0.55 0.56 0.58 0.61 0.66 0.66 0.67 0.64 0.64 0.62
0.23 0.34 0.31 0.31 0.20 0.20 0.32 0.37 0.36 0.39 0.43 0.31 0.32 0.25 0.27 0.29 0.25 0.28 0.33 0.31 0.33 0.29 0.27 0.25 0.30 0.28 0.32 0.32 0.31 0.28 0.31 0.30 0.30 0.31 0.28 0.30 0.26 0.35 0.28 0.33 0.29 0.31 0.34 0.35 0.35 0.38 0.29 0.28 0.16 0.19 0.23 0.27 0.25 0.31 0.31 0.36 0.33 0.31 0.30 0.30 0.33 0.35 0.37 0.35 0.34 0.28 0.25 0.22 0.21 0.19 0.18 0.21 0.26 0.28 0.25 0.27 0.42 0.50 0.50 0.54 0.57 0.60 0.67 0.71 0.76 0.74 0.67 0.62
0.26 0.30 0.29 0.29 0.23 0.24 0.36 0.38 0.26 0.24 0.24 0.22 0.22 0.19 0.17 0.16 0.12 0.22 0.24 0.32 0.28 0.30 0.30 0.31 0.32 0.29 0.31 0.30 0.29 0.31 0.31 0.31 0.32 0.30 0.31 0.32 0.32 0.27 0.35 0.34 0.39 0.37 0.39 0.36 0.35 0.34 0.29 0.29 0.24 0.25 0.25 0.23 0.21 0.23 0.25 0.30 0.33 0.30 0.31 0.31 0.32 0.31 0.29 0.26 0.23 0.29 0.27 0.27 0.25 0.25 0.22 0.27 0.35 0.35 0.33 0.37 0.45 0.51 0.58 0.57 0.56 0.58 0.63 0.70 0.75 0.75 0.73 0.68
0.24 0.16 0.23 0.30 0.28 0.24 0.27 0.30 0.28 0.26 0.23 0.21 0.15 0.12 0.15 0.16 0.15 0.20 0.19 0.22 0.18 0.17 0.29 0.28 0.32 0.37 0.40 0.38 0.36 0.39 0.39 0.37 0.37 0.35 0.36 0.31 0.34 0.31 0.32 0.36 0.36 0.41 0.37 0.33 0.33 0.38 0.40 0.31 0.27 0.23 0.26 0.28 0.31 0.33 0.33 0.31 0.29 0.28 0.31 0.30 0.31 0.29 0.28 0.25 0.19 0.20 0.22 0.20 0.21 0.21 0.19 0.18 0.25 0.31 0.31 0.30 0.37 0.46 0.48 0.55 0.55 0.56 0.56 0.56 0.59 0.65 0.70 0.69
0.17 0.17 0.30 0.39 0.30 0.23 0.20 0.21 0.19 0.18 0.19 0.21 0.20 0.16 0.16 0.16 0.16 0.18 0.20 0.18 0.13 0.15 0.14 0.20 0.27 0.26 0.29 0.30 0.37 0.37 0.36 0.31 0.32 0.31 0.34 0.34 0.35 0.38 0.39 0.40 0.44 0.40 0.43 0.40 0.40 0.47 0.41 0.32 0.26 0.24 0.25 0.25 0.28 0.30 0.30 0.28 0.24 0.22 0.23 0.27 0.30 0.26 0.26 0.27 0.25 0.23 0.21 0.23 0.20 0.19 0.19 0.21 0.28 0.34 0.36 0.39 0.37 0.41 0.44 0.43 0.43 0.46 0.51 0.51 0.55 0.57 0.61 0.67
0.20 0.23 0.30 0.36 0.25 0.21 0.23 0.16 0.14 0.15 0.16 0.20 0.21 0.14 0.16 0.19 0.17 0.25 0.23 0.19 0.15 0.13 0.15 0.18 0.19 0.26 0.27 0.33 0.31 0.27 0.33 0.26 0.31 0.29 0.28 0.33 0.32 0.41 0.40 0.41 0.42 0.40 0.39 0.42 0.37 0.44 0.33 0.37 0.32 0.27 0.26 0.27 0.29 0.31 0.30 0.33 0.31 0.29 0.28 0.28 0.31 0.35 0.34 0.35 0.35 0.33 0.26 0.24 0.25 0.24 0.20 0.20 0.28 0.34 0.34 0.34 0.35 0.38 0.39 0.40 0.42 0.41 0.43 0.44 0.46 0.46 0.49 0.59
0.31 0.27 0.36 0.29 0.21 0.23 0.19 0.17 0.19 0.16 0.16 0.19 0.18 0.13 0.13 0.17 0.18 0.17 0.18 0.18 0.18 0.16 0.21 0.21 0.21 0.18 0.15 0.16 0.18 0.24 0.37 0.37 0.32 0.37 0.37 0.34 0.30 0.35 0.43 0.43 0.41 0.43 0.60 0.57 0.54 0.52 0.38 0.36 0.33 0.26 0.22 0.18 0.17 0.18 0.17 0.18 0.23 0.32 0.32 0.31 0.36 0.36 0.33 0.33 0.29 0.29 0.26 0.27 0.29 0.27 0.24 0.27 0.31 0.32 0.32 0.32 0.33 0.38 0.40 0.41 0.45 0.47 0.47 0.50 0.53 0.57 0.59 0.59
0.22 0.15 0.29 0.25 0.21 0.18 0.38 0.32 0.28 0.21 0.18 0.20 0.15 0.13 0.15 0.16 0.17 0.19 0.17 0.19 0.23 0.21 0.25 0.25 0.20 0.16 0.15 0.16 0.18 0.26 0.34 0.41 0.34 0.28 0.23 0.21 0.24 0.31 0.38 0.44 0.46 0.43 0.49 0.51 0.52 0.47 0.39 0.38 0.35 0.32 0.29 0.25 0.26 0.29 0.35 0.37 0.34 0.28 0.32 0.36 0.35 0.35 0.35 0.35 0.35 0.32 0.26 0.26 0.28 0.28 0.26 0.28 0.31 0.32 0.35 0.38 0.38 0.40 0.46 0.48 0.49 0.50 0.50 0.54 0.60 0.60 0.60 0.61
0.32 0.30 0.29 0.20 0.14 0.25 0.26 0.21 0.23 0.26 0.19 0.18 0.15 0.18 0.16 0.17 0.18 0.15 0.26 0.22 0.25 0.25 0.25 0.22 0.19 0.15 0.16 0.18 0.24 0.29 0.35 0.35 0.34 0.25 0.22 0.21 0.23 0.28 0.33 0.38 0.43 0.42 0.44 0.45 0.50 0.46 0.38 0.33 0.31 0.29 0.25 0.25 0.26 0.26 0.28 0.32 0.30 0.31 0.33 0.33 0.36 0.36 0.37 0.36 0.33 0.29 0.34 0.34 0.28 0.29 0.31 0.30 0.33 0.33 0.32 0.35 0.41 0.43 0.41 0.43 0.46 0.50 0.51 0.51 0.55 0.58 0.59 0.62
0.25 0.30 0.30 0.38 0.17 0.13 0.16 0.20 0.25 0.20 0.17 0.17 0.16 0.20 0.18 0.17 0.16 0.15 0.18 0.21 0.26 0.31 0.26 0.24 0.21 0.23 0.22 0.21 0.20 0.17 0.19 0.29 0.32 0.25 0.23 0.23 0.24 0.30 0.29 0.33 0.30 0.34 0.33 0.33 0.37 0.34 0.30 0.26 0.28 0.31 0.30 0.31 0.31 0.31 0.33 0.33 0.33 0.32 0.32 0.32 0.30 0.30 0.30 0.30 0.32 0.35 0.37 0.32 0.29 0.31 0.33 0.32 0.34 0.34 0.37 0.40 0.46 0.44 0.45 0.48 0.51 0.51 0.51 0.52 0.52 0.54 0.56 0.65
0.35 0.36 0.30 0.39 0.23 0.24 0.24 0.21 0.18 0.17 0.16 0.18 0.18 0.18 0.17 0.17 0.17 0.19 0.19 0.19 0.21 0.23 0.27 0.23 0.24 0.23 0.21 0.20 0.20 0.20 0.27 0.26 0.24 0.27 0.26 0.26 0.24 0.25 0.22 0.22 0.22 0.20 0.20 0.21 0.23 0.26 0.27 0.26 0.30 0.32 0.31 0.32 0.33 0.34 0.36 0.36 0.35 0.32 0.30 0.30 0.31 0.29 0.29 0.31 0.31 0.34 0.35 0.34 0.36 0.37 0.36 0.33 0.35 0.35 0.38 0.44 0.49 0.49 0.50 0.51 0.53 0.54 0.56 0.59 0.58 0.57 0.59 0.70
0.30 0.23 0.26 0.40 0.28 0.20 0.19 0.20 0.22 0.22 0.19 0.21 0.18 0.19 0.20 0.19 0.17 0.18 0.20 0.20 0.21 0.25 0.34 0.27 0.27 0.26 0.24 0.24 0.25 0.25 0.32 0.33 0.28 0.23 0.29 0.28 0.26 0.28 0.28 0.28 0.25 0.26 0.26 0.25 0.28 0.34 0.31 0.24 0.25 0.25 0.23 0.22 0.26 0.29 0.31 0.31 0.30 0.27 0.27 0.26 0.24 0.26 0.30 0.30 0.30 0.31 0.32 0.32 0.32 0.31 0.32 0.31 0.33 0.36 0.42 0.48 0.48 0.51 0.52 0.53 0.54 0.55 0.58 0.61 0.64 0.66 0.71 0.72
0.31 0.35 0.30 0.19 0.16 0.19 0.22 0.23 0.22 0.23 0.23 0.25 0.22 0.24 0.27 0.26 0.25 0.28 0.26 0.26 0.24 0.27 0.29 0.23 0.22 0.24 0.29 0.29 0.29 0.28 0.31 0.30 0.31 0.32 0.32 0.32 0.26 0.33 0.28 0.25 0.27 0.20 0.20 0.19 0.20 0.20 0.21 0.17 0.17 0.14 0.12 0.12 0.14 0.15 0.16 0.20 0.23 0.22 0.19 0.16 0.17 0.20 0.18 0.19 0.22 0.26 0.27 0.28 0.29 0.27 0.25 0.23 0.28 0.34 0.42 0.44 0.47 0.49 0.53 0.55 0.57 0.57 0.59 0.65 0.65 0.65 0.68 0.69
0.33 0.45 0.41 0.33 0.21 0.23 0.20 0.23 0.23 0.22 0.19 0.21 0.21 0.22 0.22 0.24 0.32 0.30 0.21 0.22 0.21 0.23 0.26 0.31 0.34 0.30 0.27 0.25 0.23 0.26 0.32 0.32 0.31 0.32 0.31 0.29 0.28 0.25 0.23 0.20 0.19 0.18 0.17 0.17 0.20 0.17 0.17 0.17 0.15 0.13 0.11 0.12 0.13 0.15 0.17 0.19 0.18 0.13 0.11 0.12 0.16 0.16 0.17 0.18 0.21 0.25 0.26 0.29 0.27 0.25 0.25 0.29 0.32 0.39 0.40 0.40 0.41 0.44 0.49 0.56 0.57 0.68 0.70 0.68 0.66 0.66 0.66 0.70
Wind_Speed
10 9 9 8 7 6 5 3 2 2 4 5 6 7 8 9 9 9 9 9 8 8 7 6 6 5 5 4 4 3 3 3 4 5 6 6 5 4 4 5 6 6 5 4 4 3 3 3 3 3 2 2 2 2 3 3 2 3 3 3 5 6 6 4 4 4 3 2 3 5 4 3 6 7 6 6 8 9 9 9 9 10 10 10 12 13 14 13
10 10 9 9 8 7 5 3 1 1 4 5 6 7 8 9 9 9 9 9 8 8 7 6 6 5 5 4 4 3 3 4 4 6 7 6 5 5 5 6 6 6 6 6 5 4 4 3 3 3 3 2 2 2 2 2 1 3 2 3 5 5 6 5 5 4 2 2 2 3 4 3 4 5 4 5 7 7 9 9 9 10 10 10 11 13 13 13
11 10 10 9 8 7 5 3 1 1 3 5 6 7 8 9 9 9 9 9 8 8 7 7 6 6 5 4 4 3 3 4 5 6 6 6 6 6 6 6 7 7 7 6 6 5 4 3 3 3 3 3 3 2 1 2 2 3 2 3 5 4 6 7 6 4 3 2 1 3 4 3 3 5 5 5 5 6 9 7 6 8 8 9 10 12 12 11
12 11 10 9 9 7 5 4 2 1 3 5 6 7 8 8 8 9 9 8 8 8 7 7 6 6 5 4 4 3 3 4 4 4 4 5 6 6 6 7 7 7 7 7 6 5 4 4 4 4 4 4 4 4 3 3 2 2 2 4 4 3 5 6 6 5 4 1 2 3 4 4 5 6 3 4 6 6 7 5 6 7 8 9 9 10 10 10
13 11 10 10 9 8 6 4 3 2 3 4 5 6 7 8 8 8 8 8 8 8 7 7 6 6 5 4 4 3 2 2 1 3 3 4 4 5 6 7 8 8 8 7 7 6 5 5 4 3 3 3 3 3 4 4 2 1 3 5 4 3 4 5 6 5 3 2 4 3 3 5 6 5 2 4 7 6 5 6 7 7 8 8 9 9 9 9
13 12 11 10 9 8 6 5 4 2 3 4 5 6 7 7 8 8 8 8 8 7 7 7 6 6 5 4 4 4 3 1 1 3 3 3 4 5 6 7 8 8 8 7 7 6 5 5 4 4 4 4 4 4 5 4 2 3 4 5 3 2 4 5 5 3 2 3 5 2 2 5 5 4 4 4 6 3 2 4 4 6 8 7 8 8 8 8
13 12 11 10 9 8 6 5 4 2 3 4 5 6 6 7 7 8 8 8 8 7 7 6 6 6 5 5 4 4 4 3 1 3 4 3 4 4 6 7 8 8 8 8 7 6 5 6 5 4 5 6 6 6 4 3 4 5 4 4 2 3 4 4 3 2 1 1 3 2 2 5 3 3 4 4 3 1 0 1 1 5 7 6 7 7 7 6
13 12 11 10 9 8 6 5 4 3 3 4 5 6 6 7 7 7 8 8 8 7 7 6 6 6 5 5 4 4 5 3 2 2 3 3 4 4 5 7 8 8 9 8 7 7 6 6 6 5 6 7 7 7 5 4 5 6 6 6 3 4 5 4 2 1 0 1 2 2 4 4 3 3 3 3 3 2 2 2 1 5 7 6 7 6 7 5
13 12 11 10 9 8 6 5 4 3 3 4 5 5 6 6 7 7 8 8 7 7 7 6 6 6 5 5 4 4 3 3 2 3 3 4 4 5 6 6 8 9 8 8 7 7 6 6 6 6 7 8 7 7 6 5 5 4 6 6 5 7 6 4 4 2 1 2 3 4 4 3 2 3 2 1 3 4 5 4 1 4 6 7 6 6 7 7
13 12 11 11 10 8 6 4 3 2 2 3 4 5 5 6 7 7 7 7 7 7 6 6 6 6 5 4 4 4 2 3 3 4 4 4 4 5 6 6 8 9 8 8 7 7 7 7 6 6 6 7 7 7 7 8 7 6 6 7 7 8 6 4 4 2 3 3 4 4 3 2 2 3 3 2 2 3 5 5 2 3 4 5 4 4 6 7
12 12 11 11 10 8 7 4 3 2 1 2 3 4 5 6 6 7 7 7 7 7 6 6 6 6 5 5 5 4 3 4 4 4 5 5 5 5 6 7 7 8 8 8 7 8 8 7 6 6 4 4 6 7 6 7 9 8 7 8 8 8 7 6 6 4 4 5 5 4 4 5 4 4 4 4 3 4 6 5 4 4 3 4 5 5 6 7
12 12 11 10 10 9 7 5 3 1 1 2 3 4 5 5 6 6 7 7 6 6 6 6 6 6 5 6 8 5 4 4 4 5 5 5 6 6 6 7 7 8 8 7 7 8 8 7 5 6 6 5 6 6 5 6 8 8 7 8 9 9 9 8 7 6 5 5 6 4 6 8 6 5 4 5 5 6 7 4 4 6 5 6 6 5 6 7
12 11 11 10 9 9 8 6 4 1 0 2 3 4 4 5 5 6 6 6 6 6 6 6 6 6 5 6 7 6 5 5 5 5 6 6 6 6 7 7 7 8 9 7 6 7 8 7 7 7 7 7 7 7 8 8 8 8 8 8 7 7 8 8 7 6 5 4 5 4 6 6 5 5 4 6 6 7 7 5 5 6 6 6 7 7 7 8
11 11 10 10 9 8 8 7 5 2 1 2 3 4 4 5 5 5 6 6 6 6 6 6 5 5 6 6 5 6 6 6 6 6 7 7 7 7 7 7 7 8 8 7 7 6 6 7 8 8 8 8 9 9 8 8 7 7 7 7 6 6 7 7 8 7 5 4 6 7 8 6 5 7 8 8 8 10 9 7 6 6 7 7 7 8 8 9
11 11 10 9 8 8 7 7 5 3 1 2 3 4 4 4 5 5 5 6 6 6 6 5 6 5 6 8 6 6 6 7 7 8 7 8 8 7 7 7 7 8 7 8 7 6 6 7 8 7 8 9 9 8 7 6 6 6 6 6 7 6 6 6 9 9 8 7 8 10 10 8 7 9 11 10 11 11 9 8 7 8 8 7 8 9 8 8
11 10 10 9 8 7 7 6 5 3 1 2 3 3 4 4 4 5 5 5 6 6 5 5 5 5 6 6 5 5 6 8 8 8 8 8 8 7 7 7 7 7 7 8 8 7 7 7 8 8 8 8 8 8 7 6 6 7 7 6 6 6 5 5 7 9 10 9 10 11 9 8 9 10 11 11 11 11 10 10 9 9 9 8 8 8 7 7
11 10 10 9 8 7 6 6 5 3 1 2 3 3 4 4 4 5 5 5 6 6 6 5 5 6 7 5 5 6 7 7 7 7 7 8 8 7 7 7 7 7 7 7 7 7 7 7 7 7 7 7 7 7 7 7 6 6 6 7 7 7 6 5 6 8 9 7 9 11 9 9 10 10 11 11 11 11 10 9 9 8 8 8 8 8 8 8
11 10 10 9 8 7 6 5 4 3 2 2 3 3 4 4 5 5 5 5 6 6 6 6 6 6 6 7 7 6 6 6 6 7 7 8 8 8 8 7 7 7 7 8 8 8 7 7 7 7 7 8 7 6 6 7 6 5 6 7 8 8 8 9 8 8 9 8 7 9 9 9 9 8 9 10 10 12 11 9 10 9 9 9 9 10 10 9
11 10 10 9 8 7 6 5 4 3 2 2 3 3 4 5 5 6 6 6 7 6 5 6 8 5 5 6 6 4 5 5 6 7 7 8 8 9 9 9 8 9 9 8 8 8 7 7 7 7 8 8 8 9 9 9 8 8 7 8 9 8 9 11 9 8 10 11 9 10 11 11 10 9 9 9 10 12 11 10 11 11 10 11 11 11 12 11
11 10 10 9 8 7 6 5 4 3 2 2 3 4 5 5 5 6 7 8 10 9 7 6 10 8 6 5 4 3 4 6 7 7 8 8 8 9 10 10 10 10 9 10 10 10 8 7 8 9 9 8 8 10 10 10 8 9 9 9 10 10 10 11 11 9 9 10 11 13 15 14 12 11 10 9 10 11 11 11 12 11 11 12 12 12 13 13
11 10 10 9 8 7 6 6 5 3 3 3 4 5 5 4 5 6 7 9 12 13 12 9 10 10 8 5 5 5 6 6 7 8 7 8 8 9 9 9 10 9 9 10 11 11 10 9 10 10 11 11 11 9 8 10 10 11 11 11 11 11 11 11 11 10 9 10 11 13 15 14 12 12 11 10 10 11 11 11 11 11 10 11 11 13 14 14
11 10 10 9 8 7 6 6 5 4 4 4 4 5 5 5 6 7 8 10 12 14 14 12 11 10 9 8 7 7 7 7 8 8 8 7 8 9 8 8 9 9 10 10 9 9 10 10 11 11 12 13 12 9 10 12 12 12 12 12 12 11 11 11 10 9 10 11 11 12 14 12 12 13 12 11 11 11 10 10 11 11 11 11 11 12 14 14
11 10 10 9 8 8 6 6 6 5 4 4 4 4 5 6 7 8 9 10 11 13 14 13 12 11 11 11 9 8 9 9 8 10 9 7 9 10 9 10 9 10 11 11 11 10 11 11 11 11 12 10 9 10 12 13 12 13 12 12 12 12 12 11 11 10 10 12 12 14 15 14 14 14 12 11 11 11 10 10 11 11 12 12 12 13 14 15
12 11 10 9 9 7 6 7 6 4 5 5 4 4 6 7 7 8 9 10 10 11 12 12 12 11 11 9 8 9 10 9 9 11 11 9 9 9 10 11 11 11 11 12 13 13 14 14 13 11 9 8 11 12 13 13 12 13 14 13 13 14 14 14 13 13 13 14 15 16 16 14 14 13 12 11 12 12 11 11 11 12 12 12 13 13 14 15
11 11 10 9 9 7 7 6 4 5 6 4 4 6 7 7 7 7 8 9 10 9 10 11 10 10 9 8 7 9 10 10 10 10 12 11 10 10 10 10 11 11 11 12 13 14 14 13 12 12 11 11 13 13 14 14 13 14 14 15 16 15 14 15 14 13 14 14 14 14 14 13 12 13 13 13 14 14 12 11 11 12 12 12 13 13 14 14
11 10 10 10 9 8 7 4 4 7 6 4 5 7 7 6 6 7 7 8 9 8 8 9 9 8 8 9 8 9 10 11 10 8 10 11 11 11 11 11 10 11 12 12 12 12 13 13 12 13 14 14 14 14 14 14 13 13 13 13 15 15 13 14 15 14 15 15 14 13 13 13 14 15 15 16 15 14 12 12 11 12 13 13 13 14 14 14
11 10 10 10 9 8 6 5 6 7 6 5 7 7 7 6 6 6 7 8 8 8 7 7 8 8 8 9 9 9 7 7 9 10 9 10 10 11 11 11 11 12 12 11 11 10 11 13 13 13 13 13 13 13 13 12 13 13 12 11 13 14 15 16 17 16 16 17 17 16 16 17 18 17 17 17 15 14 14 14 13 14 14 14 14 14 14 14
11 10 10 10 10 8 6 6 7 6 6 7 8 7 7 6 6 5 6 7 6 7 8 8 7 8 9 9 10 11 8 6 9 11 10 10 9 10 11 12 12 14 14 12 11 11 10 12 13 13 13 12 13 13 11 11 13 14 14 13 13 15 18 18 18 18 17 18 18 18 17 18 18 19 18 18 17 16 17 17 16 15 15 15 15 15 15 15
11 11 10 11 10 8 6 7 7 7 7 8 8 8 7 6 6 6 6 6 6 7 8 8 8 9 11 11 11 13 12 10 10 9 10 11 11 11 13 13 14 15 16 15 14 15 14 14 14 13 13 13 14 15 14 13 14 15 17 17 17 18 19 19 18 18 18 19 19 19 18 18 18 18 14 14 16 17 18 17 16 15 15 15 16 16 16 16
12 11 11 11 9 8 8 8 8 8 9 9 9 8 8 7 6 6 6 6 5 5 6 7 8 9 10 11 12 13 13 13 12 10 11 13 13 13 14 15 15 15 16 17 17 18 18 19 17 16 16 17 17 18 16 16 16 17 18 19 19 19 19 19 18 18 18 18 19 20 20 19 19 17 13 15 17 18 17 17 16 15 15 15 16 17 17 17
12 11 11 10 9 8 9 9 9 10 10 10 10 9 8 7 6 7 6 6 6 6 6 8 8 8 9 11 12 12 13 13 14 14 13 12 13 14 13 14 14 14 15 16 17 18 19 19 18 18 19 18 18 17 17 18 18 17 16 17 17 17 17 17 17 17 16 17 18 19 20 19 19 18 15 15 16 17 18 18 17 16 15 15 16 18 18 18
13 12 11 10 9 9 9 9 10 11 10 10 10 8 8 7 8 8 7 6 7 6 6 7 6 7 10 11 11 12 12 12 12 13 13 13 13 13 13 12 12 13 14 14 15 15 16 16 16 16 17 17 16 16 16 17 17 16 15 15 16 16 15 15 15 15 16 18 18 19 20 19 18 17 15 13 16 19 19 17 17 18 16 16 17 18 19 19
14 13 11 10 10 10 10 11 11 11 10 10 9 8 8 8 8 9 8 6 6 7 7 8 7 7 10 11 11 12 12 12 12 12 12 13 14 14 15 14 13 14 15 14 15 15 15 15 15 16 16 16 15 15 15 15 14 14 14 14 14 14 14 14 14 15 17 20 20 20 20 19 18 17 16 16 18 18 17 16 17 19 18 17 18 19 19 19
14 12 11 10 10 11 11 11 11 11 10 9 9 8 8 9 9 9 8 6 7 8 9 10 10 11 12 13 13 13 13 13 13 13 13 13 14 14 15 15 15 16 17 18 17 16 17 15 14 14 12 12 13 14 14 15 15 16 17 17 17 17 16 16 17 18 19 20 22 21 19 17 18 17 17 19 18 15 17 18 18 19 20 19 19 19 19 20
14 12 11 10 10 11 11 11 11 10 9 9 9 9 9 10 9 8 8 9 10 9 10 12 12 14 14 14 15 16 15 13 13 14 14 14 14 14 15 16 16 16 17 18 16 15 17 16 13 11 10 11 14 14 15 16 17 17 18 18 18 18 18 18 19 20 21 21 21 21 21 22 24 25 25 25 22 19 20 21 20 20 20 20 20 20 20 20
13 11 10 10 10 11 11 11 10 10 10 9 9 9 9 8 9 9 9 11 12 12 13 14 13 14 14 13 13 13 12 13 13 14 16 17 17 17 17 16 16 15 15 15 14 14 16 16 14 14 15 16 19 21 20 18 17 16 16 17 18 19 19 20 21 21 21 22 22 22 24 24 25 26 25 23 22 21 22 22 21 21 20 20 20 20 20 21
13 11 11 10 12 12 12 11 11 10 10 10 10 11 10 8 10 11 11 12 13 13 13 13 12 13 13 12 10 7 7 12 14 14 16 16 15 15 15 14 14 15 14 13 14 15 17 19 19 20 21 20 20 22 21 19 18 18 18 19 20 21 21 20 20 21 21 22 23 24 25 24 23 22 20 19 20 20 21 22 21 21 21 20 20 20 21 22
14 13 12 11 13 13 13 12 11 10 10 10 11 11 11 10 10 11 12 13 14 14 14 13 12 12 12 12 12 9 9 12 13 13 14 14 13 13 14 14 14 14 15 16 18 18 19 21 22 22 23 22 20 20 20 20 21 22 22 22 21 21 21 20 20 21 21 22 22 24 25 24 23 22 20 19 19 19 20 22 21 20 20 21 21 21 22 22
15 14 12 13 15 14 14 13 12 11 11 11 10 10 11 11 11 12 13 13 14 14 14 14 13 13 13 14 15 15 15 15 14 14 14 13 14 14 15 16 17 18 18 18 19 19 19 21 23 22 22 22 21 20 21 21 21 22 24 23 21 21 22 22 21 22 22 22 22 24 25 23 22 22 22 20 19 19 21 21 21 21 22 22 23 23 23 23
15 14 12 14 16 16 15 14 13 12 11 10 11 11 12 13 14 14 14 13 14 14 14 15 15 16 16 16 17 17 17 17 17 17 17 16 17 17 16 17 18 19 19 18 18 19 19 21 24 24 23 23 22 21 21 21 21 21 22 21 20 20 20 20 21 21 22 21 21 22 23 23 22 21 21 19 17 18 20 20 21 22 23 23 23 23 24 25
16 15 14 16 17 17 16 14 12 11 11 10 11 13 13 14 15 15 14 14 14 14 15 16 16 17 17 18 18 18 18 19 19 18 18 18 18 17 16 17 19 20 21 21 20 20 20 21 23 23 22 22 23 23 24 25 24 23 21 21 21 20 19 20 21 22 22 21 22 23 24 24 22 20 20 19 17 19 21 22 24 24 24 24 24 25 26 26
17 16 17 17 17 17 16 13 12 12 12 12 13 15 15 15 16 16 15 15 14 14 15 15 16 16 17 17 18 18 18 19 19 19 19 19 20 19 19 19 19 19 20 22 22 21 22 22 24 25 25 25 26 26 27 28 29 27 26 25 25 24 24 24 24 25 26 27 28 28 28 27 25 24 24 23 22 23 23 24 24 25 25 25 26 27 28 28
18 19 19 17 17 18 17 14 13 14 14 14 15 17 17 17 17 17 17 16 16 16 16 16 17 17 17 17 17 18 19 19 20 20 20 21 21 21 21 20 18 19 20 21 21 21 21 22 24 27 27 28 29 29 29 30 29 29 28 27 27 27 27 27 27 27 28 29 30 28 28 28 26 25 25 25 24 25 25 26 26 27 27 27 27 29 29 30
20 21 20 17 17 18 16 15 15 16 16 16 16 18 18 18 18 18 18 18 18 18 18 18 18 18 18 19 19 20 20 19 20 20 21 21 20 21 22 21 19 19 19 20 22 22 22 21 22 24 24 25 25 24 24 24 23 24 25 25 26 28 28 26 26 26 27 31 31 28 28 29 27 26 27 27 27 28 28 29 29 29 29 30 31 31 30 29
21 21 19 18 19 19 17 16 17 17 17 18 18 19 19 18 19 20 20 20 20 20 20 19 20 21 21 22 22 22 21 21 21 22 22 22 22 22 22 22 22 21 19 20 22 23 23 23 23 24 24 24 24 22 21 22 22 23 24 24 25 28 29 26 24 25 27 31 32 30 31 32 30 30 31 30 29 29 30 29 29 30 30 31 31 30 29 30
21 20 20 20 20 19 17 17 17 17 18 19 20 21 20 20 21 22 21 21 21 21 21 21 22 23 23 23 24 24 24 23 24 24 24 24 23 23 23 24 25 24 23 23 24 24 24 26 27 28 29 29 29 29 28 28 28 28 29 29 29 29 30 29 28 29 31 31 32 34 35 35 34 33 33 32 29 28 28 30 30 31 31 30 29 30 31 32
22 21 21 21 20 19 18 19 19 19 20 21 21 21 22 22 22 22 21 22 22 23 22 22 23 24 24 24 24 24 25 25 26 26 26 27 26 26 27 27 26 27 27 27 27 26 27 28 29 31 33 34 35 36 35 33 33 34 34 35 35 35 35 35 34 35 35 32 33 35 37 37 37 37 36 34 32 31 30 30 31 31 31 31 32 34 34 33
22 22 22 21 21 21 21 22 22 23 24 24 23 23 24 25 24 23 23 24 24 23 23 24 24 25 25 25 25 26 26 26 27 27 27 27 28 28 29 29 29 30 30 29 28 27 28 31 32 32 34 35 36 36 35 34 34 35 36 37 38 38 39 39 39 39 38 36 36 39 41 41 41 40 40 38 36 36 35 34 35 35 35 36 37 36 34 32
23 24 23 23 23 24 25 25 26 26 26 25 25 25 26 26 26 25 25 25 25 25 25 25 26 26 27 27 27 27 27 27 28 28 28 29 29 29 30 30 30 30 30 29 29 28 29 31 32 32 34 36 37 36 35 35 35 36 37 38 39 40 40 41 41 41 40 40 41 42 44 45 43 40 40 39 38 38 38 38 38 37 36 36 37 35 33 33
24 25 25 25 26 26 27 27 27 27 26 26 26 26 27 27 28 27 26 26 26 26 26 27 28 28 28 28 27 28 28 29 30 30 29 30 30 29 29 30 29 29 30 30 30 29 30 32 33 33 35 37 38 38 38 37 37 38 40 41 42 41 41 41 40 40 40 41 42 42 43 43 41 38 38 38 37 38 38 38 38 38 36 35 35 33 33 35
26 26 26 27 27 27 27 27 27 27 27 26 26 27 27 28 28 27 26 27 27 28 28 29 30 29 28 28 29 29 30 30 32 32 31 31 32 31 31 31 32 32 32 32 31 31 32 33 34 34 35 37 39 39 39 38 37 40 43 44 43 41 41 41 40 39 39 40 41 41 41 41 39 38 38 38 38 38 36 36 36 36 35 34 33 33 34 35
27 27 27 28 29 28 28 28 28 28 28 27 28 29 29 29 28 28 28 28 28 28 28 28 28 28 29 30 30 30 31 32 34 34 35 35 36 37 36 37 37 36 35 34 33 33 33 33 34 34 35 37 40 41 40 37 36 40 42 40 38 39 40 40 40 40 39 39 39 39 39 39 39 38 38 39 38 38 36 35 35 34 34 35 36 37 37 36
Wind_Direction
7 5 1 357 351 344 336 320 287 234 210 203 203 202 199 198 197 196 195 195 195 196 197 194 195 197 198 203 209 211 216 221 222 217 217 215 203 202 200 190 197 203 203 207 213 228 231 241 259 264 282 298 304 320 327 329 334 331 339 354 359 16 20 22 20 19 45 55 42 66 106 109 98 113 102 100 106 104 102 99 94 95 105 105 111 121 125 128
9 8 5 2 358 352 347 339 320 214 199 194 196 197 194 194 194 195 195 194 194 194 195 194 194 196 199 203 207 212 222 228 234 234 226 215 204 206 206 205 209 207 208 210 213 224 228 240 258 271 281 286 295 299 331 5 357 338 351 2 6 17 16 19 12 9 21 1 20 79 134 119 95 119 120 129 118 114 116 102 102 105 104 107 116 126 127 131
12 11 9 7 5 1 360 2 13 171 185 185 187 190 190 189 191 192 193 193 192 192 193 192 194 196 199 201 206 215 226 242 247 243 229 210 206 210 208 210 210 207 208 209 214 225 231 249 263 278 275 267 281 275 313 1 343 345 345 344 5 14 4 10 6 10 14 351 62 122 156 150 119 117 106 125 114 120 128 107 110 118 119 120 124 133 134 136
14 14 14 12 10 9 11 17 36 132 170 174 177 182 185 186 188 188 189 190 189 190 189 191 194 195 199 202 208 217 232 256 250 226 206 199 204 210 209 207 206 205 208 213 224 235 239 251 266 281 275 268 274 261 269 306 324 351 338 335 354 351 353 13 18 24 33 48 92 94 144 147 142 140 90 98 112 118 124 120 129 128 132 135 133 140 143 144
16 16 17 16 14 14 19 25 43 111 159 166 169 176 181 183 185 186 186 186 187 188 188 192 194 196 201 202 204 207 221 252 206 170 173 190 202 208 207 204 204 205 208 217 231 242 243 245 257 264 255 264 278 270 265 272 290 311 310 318 327 340 354 16 25 29 42 107 129 118 137 133 144 157 58 85 126 116 95 107 124 133 139 144 144 146 149 152
16 17 18 18 17 18 23 29 45 97 150 162 165 172 179 183 183 183 183 183 185 186 188 191 192 197 199 196 196 192 209 252 160 181 189 192 206 208 206 204 204 206 208 217 232 239 237 236 239 234 236 252 272 295 280 264 262 281 307 319 321 344 347 3 19 28 43 115 149 146 130 139 155 155 84 97 134 116 85 96 107 143 150 152 148 150 156 156
15 16 16 17 18 19 24 30 44 84 138 159 164 170 178 183 183 182 181 182 184 185 188 190 192 196 192 189 193 198 237 266 175 185 201 200 209 209 207 205 205 207 209 219 230 231 228 228 228 231 246 258 268 285 289 274 267 267 282 294 307 325 327 347 7 31 39 139 148 123 152 166 167 146 117 127 156 130 221 128 113 147 149 156 151 158 168 158
14 14 14 14 16 18 22 29 42 74 125 155 164 169 178 183 184 182 181 183 184 186 187 189 192 193 189 191 203 229 248 241 171 184 209 211 211 206 206 205 205 204 208 219 226 225 225 227 232 244 253 265 281 287 293 288 263 254 266 283 290 290 313 325 303 8 5 206 147 170 188 172 138 142 142 146 174 201 247 255 192 159 157 165 161 167 181 174
12 13 13 12 12 14 18 26 39 66 114 149 163 169 177 183 184 183 183 184 184 186 187 190 193 192 195 204 227 258 244 206 205 225 221 216 211 205 205 203 201 201 207 219 224 223 224 226 237 260 266 273 286 285 282 276 270 282 288 288 271 275 305 301 257 223 227 220 186 207 193 164 156 182 188 160 179 198 233 252 208 171 169 171 171 177 188 191
9 11 13 12 11 11 12 17 32 58 108 146 163 171 177 181 184 183 184 185 185 188 189 193 194 195 204 215 238 260 240 219 235 234 222 214 208 204 202 201 200 203 210 217 220 221 225 235 256 278 281 277 279 276 272 264 274 307 304 285 272 282 294 266 257 252 240 231 220 220 186 189 228 214 219 237 219 210 230 233 197 163 159 170 185 193 203 207
4 9 11 13 11 10 10 9 18 46 110 150 166 173 178 181 183 184 185 186 188 191 194 198 200 208 220 228 246 263 244 233 234 226 221 212 208 207 202 203 203 206 214 218 219 224 232 247 265 270 268 285 287 277 275 268 272 284 287 282 274 274 266 252 265 269 254 233 224 235 216 230 250 231 232 244 260 264 251 237 206 198 196 210 215 214 225 226
1 4 8 12 12 11 10 6 3 23 117 160 173 176 178 180 182 185 187 189 192 195 200 205 207 220 239 243 247 254 252 240 228 219 219 213 211 209 204 207 210 211 215 218 224 231 240 255 266 256 254 282 288 279 296 294 280 277 275 276 273 268 257 252 252 242 250 232 218 252 249 241 243 228 233 246 266 275 263 246 211 216 230 244 237 235 248 244
359 360 2 7 10 11 11 8 2 350 158 173 179 178 180 181 185 188 190 193 196 200 205 208 216 233 250 254 246 242 252 246 226 220 218 214 214 211 212 216 218 215 216 226 238 240 240 247 254 255 259 272 276 280 297 294 282 276 269 269 274 277 258 241 235 232 240 227 212 249 260 246 233 224 246 258 270 275 263 240 221 227 236 248 251 251 260 252
356 357 358 1 5 9 10 10 5 347 223 185 181 180 183 185 190 192 196 200 199 203 207 211 225 239 248 258 253 244 254 247 228 227 219 216 217 214 217 221 219 218 224 235 241 243 241 243 249 254 259 264 270 280 288 282 272 267 265 262 262 281 271 230 222 232 236 236 235 251 262 255 241 251 263 263 268 273 269 250 235 241 244 249 258 255 255 251
352 352 354 355 357 3 7 9 7 355 258 200 188 187 189 192 197 198 203 205 203 206 209 217 232 248 259 260 255 251 252 242 232 229 221 218 220 217 219 222 221 222 230 234 234 243 245 244 247 250 256 256 258 268 276 276 268 258 263 268 257 267 281 239 223 237 248 254 250 252 264 262 254 270 275 270 269 269 268 261 253 255 252 249 256 254 251 250
349 348 348 349 350 353 359 3 5 360 304 208 199 200 198 199 202 203 210 209 206 209 212 228 240 252 273 273 257 253 248 240 233 225 220 222 223 221 218 218 221 223 228 231 235 248 248 245 247 250 259 258 253 255 262 273 272 255 251 268 267 257 270 245 226 244 255 260 257 251 260 266 263 273 275 271 270 264 260 262 260 257 252 250 259 257 249 248
347 345 343 344 343 345 350 354 358 358 329 218 212 214 207 207 207 207 215 214 210 215 223 244 258 258 268 275 268 255 244 237 227 219 221 224 224 220 215 217 222 223 227 233 238 246 243 243 247 247 250 251 250 252 255 266 275 266 253 266 272 262 265 255 245 252 247 255 266 253 253 267 266 267 268 266 268 265 258 257 256 254 253 257 262 258 253 246
344 343 341 340 338 336 340 345 350 351 333 231 218 224 223 218 213 214 218 217 217 223 238 251 257 274 271 259 263 254 233 229 223 219 221 224 226 222 220 224 225 223 229 235 238 241 239 239 244 245 244 242 244 245 248 258 272 278 263 263 266 262 265 265 266 259 240 246 264 254 259 267 256 258 266 261 263 266 260 255 257 256 259 264 260 256 256 247
341 341 339 338 336 332 332 336 339 340 330 254 227 233 234 225 223 232 229 226 221 219 249 248 228 265 299 252 248 243 221 227 227 223 223 226 230 229 228 230 229 230 234 236 233 232 235 237 238 244 245 242 244 247 255 265 274 280 270 260 264 266 267 269 272 257 241 250 258 262 275 274 257 257 264 261 264 267 260 256 260 259 258 260 260 258 256 249
340 338 336 336 335 330 328 327 326 327 313 275 251 240 237 231 231 237 234 233 231 231 263 256 220 249 296 250 227 240 237 236 230 228 228 226 230 232 229 229 233 235 239 242 238 231 232 241 245 250 251 251 257 257 259 265 269 278 278 268 265 268 269 272 276 259 242 253 262 269 278 275 265 263 261 258 265 268 261 257 259 256 253 253 255 257 257 253
339 336 333 332 331 327 325 324 320 314 298 282 267 252 253 262 250 247 246 243 238 238 255 257 235 254 275 246 240 253 244 236 233 232 228 225 229 230 224 227 236 238 241 248 246 232 229 249 257 258 259 258 262 267 265 264 267 271 272 270 268 268 270 275 279 261 240 256 268 273 277 270 262 264 259 253 262 268 260 256 258 255 254 254 251 252 254 255
340 337 331 327 328 322 317 321 318 309 292 269 261 262 277 285 262 256 261 259 251 243 247 251 250 258 255 248 259 255 240 236 235 227 220 225 230 226 220 224 236 240 239 244 247 234 234 254 259 258 265 260 256 265 267 265 267 268 267 269 267 267 270 273 276 262 244 259 271 277 281 273 264 263 253 247 259 266 257 254 259 259 259 261 256 253 254 254
339 338 333 328 326 317 308 313 315 311 291 266 268 285 292 284 267 261 259 263 264 252 243 242 246 252 248 250 255 249 245 244 239 226 216 228 233 228 230 235 244 251 245 242 241 242 250 260 260 263 271 267 261 267 269 267 265 263 262 264 266 267 271 272 271 267 259 264 270 275 280 278 273 263 245 244 258 258 256 260 265 264 263 262 260 258 257 255
336 336 334 330 326 316 306 305 303 300 287 278 298 308 298 286 273 269 260 261 267 254 241 239 243 248 247 248 245 242 246 246 250 234 216 230 238 229 239 247 253 260 257 250 247 251 260 262 264 271 273 267 266 265 266 268 265 262 261 262 266 266 269 274 269 261 263 266 266 270 271 268 272 263 240 244 259 253 253 262 265 265 263 263 262 260 259 256
331 331 332 330 327 319 308 300 293 294 286 286 315 314 304 292 275 271 264 263 263 246 237 236 238 244 240 239 242 246 248 247 256 238 215 231 243 235 245 252 255 259 259 257 255 258 262 263 265 266 268 270 270 268 267 267 268 267 265 263 266 267 271 278 275 265 268 272 271 273 270 262 268 265 245 248 261 254 250 259 263 265 264 262 264 262 259 255
326 326 328 327 327 321 307 295 302 303 293 301 321 313 308 298 280 273 264 265 260 234 227 229 229 241 240 237 240 248 256 250 244 227 219 237 247 247 254 254 253 257 260 265 269 267 262 264 267 262 267 273 272 272 268 264 265 266 268 272 272 275 280 280 277 273 272 272 272 273 271 266 270 269 254 250 255 247 246 258 261 265 266 263 263 263 260 255
322 321 323 324 324 321 306 294 308 310 302 311 314 307 306 296 282 277 265 264 255 228 225 230 233 245 244 238 234 239 259 255 232 224 232 246 246 247 254 256 258 257 260 268 268 266 260 262 266 262 266 269 266 269 269 265 265 262 271 286 281 278 281 278 276 276 273 274 273 269 270 270 269 270 260 247 242 238 245 259 264 265 265 262 261 261 260 258
321 319 320 320 317 313 303 296 305 313 309 308 307 302 302 292 278 274 265 264 253 233 236 239 244 253 247 240 236 240 254 258 241 235 236 244 246 249 252 257 264 264 264 266 263 264 264 263 266 264 264 264 263 272 283 279 271 267 276 289 286 278 278 277 276 275 275 276 274 271 274 273 271 275 265 242 234 240 248 257 264 264 261 259 260 259 259 259
322 319 318 317 310 302 296 292 298 308 306 303 302 298 295 286 273 263 264 269 258 242 243 244 251 254 247 243 242 245 250 251 249 243 238 245 252 256 258 261 270 271 267 266 266 267 268 268 271 269 265 265 268 277 286 281 274 275 280 283 282 277 275 274 272 272 273 272 272 274 275 273 277 281 265 239 242 248 252 258 262 261 258 257 258 260 260 259
323 319 318 316 308 298 292 285 287 298 301 299 298 296 287 274 264 258 257 266 263 243 239 247 257 254 243 243 245 243 246 250 250 245 245 253 256 256 262 267 268 270 269 268 268 269 269 268 268 264 264 268 271 273 277 276 274 278 280 279 278 276 274 271 267 267 270 270 272 275 273 272 278 277 257 248 256 254 252 259 260 259 257 256 259 262 262 261
323 319 319 316 307 300 294 286 290 296 295 295 294 289 277 263 260 262 257 264 268 256 253 255 254 251 243 246 249 243 242 248 250 247 249 257 257 252 261 269 263 263 268 268 269 269 266 265 264 259 259 265 267 268 272 274 272 272 277 279 280 279 276 272 266 261 263 268 271 272 273 274 276 276 262 252 256 256 256 259 257 257 257 256 262 264 262 262
321 319 317 313 305 300 294 291 295 295 291 294 291 278 268 262 257 259 260 265 262 260 274 268 249 253 254 253 258 253 248 248 249 248 248 256 259 253 256 263 261 262 266 267 273 274 270 270 271 265 258 254 258 267 273 274 268 263 270 276 278 279 278 274 269 263 266 273 275 274 275 273 272 277 271 260 261 259 258 261 255 255 259 259 264 267 263 261
316 317 315 309 304 301 297 295 294 292 290 292 284 269 267 268 261 261 263 266 265 264 277 276 265 269 270 264 264 262 258 253 250 252 252 257 265 264 261 261 260 264 270 274 279 280 278 275 272 274 267 247 249 269 277 278 272 265 270 276 277 280 281 279 276 273 274 277 281 284 283 276 273 276 275 276 278 262 253 264 262 256 259 261 265 268 265 260
310 312 311 306 301 298 298 297 292 289 289 285 274 266 267 264 263 268 268 280 294 279 272 280 280 276 274 271 266 267 265 255 251 260 260 258 263 267 268 268 266 268 272 273 275 276 277 275 271 280 274 244 249 268 273 277 278 275 278 279 278 278 276 276 276 276 277 279 283 286 284 278 279 282 280 281 284 266 255 267 267 259 259 261 266 268 265 262
307 306 305 302 301 298 298 296 292 287 282 276 268 265 264 262 268 280 277 284 296 287 282 289 284 275 273 269 266 268 264 252 253 265 266 262 265 269 271 270 269 272 275 273 272 273 273 272 274 280 272 257 264 273 275 277 275 275 279 275 275 278 274 275 277 278 282 283 281 279 277 276 278 281 281 277 273 266 262 267 267 262 258 260 267 268 265 264
304 301 301 304 309 306 302 297 293 286 274 266 265 266 268 270 277 285 282 281 287 288 288 288 280 275 272 267 268 268 258 255 264 272 271 268 268 269 270 271 270 271 278 276 271 272 273 272 274 278 275 271 274 274 272 272 273 276 278 275 278 281 278 280 282 282 282 280 278 277 277 279 279 280 280 274 267 263 263 266 266 263 260 261 266 267 265 264
301 297 295 305 315 309 303 298 292 285 269 260 264 266 272 284 284 282 284 285 285 286 285 283 281 280 276 272 273 269 258 265 268 268 270 268 268 270 271 275 276 274 279 282 275 275 279 277 276 280 279 277 280 278 269 265 271 275 277 279 283 282 277 277 279 279 278 276 278 278 277 279 281 282 282 274 266 261 262 267 267 263 262 263 266 266 265 265
299 291 285 302 315 308 302 299 290 281 269 263 266 263 267 285 290 284 287 288 284 284 281 277 277 280 280 277 273 271 276 278 272 269 272 270 270 279 280 278 280 279 280 283 279 276 279 279 277 278 279 278 281 280 273 269 271 272 275 277 278 278 275 273 274 275 275 275 277 277 277 278 279 282 282 274 265 261 263 267 267 266 264 264 266 267 266 267
297 288 284 303 312 305 301 296 284 275 268 267 272 267 267 280 289 287 289 289 283 280 278 276 277 280 280 277 274 276 281 283 280 277 276 273 272 278 279 276 276 277 277 278 277 276 277 279 278 277 278 279 277 273 272 274 274 275 276 271 270 274 275 273 272 273 274 276 278 279 279 279 279 282 283 276 265 263 265 267 267 269 267 266 268 269 268 270
294 285 283 302 307 303 299 291 280 274 269 267 271 275 276 280 285 288 290 289 283 277 276 277 278 277 277 278 277 276 277 278 280 278 275 275 276 277 277 277 279 280 278 277 278 278 277 276 277 278 277 276 273 270 271 274 277 281 278 270 267 272 274 273 271 270 272 275 278 280 279 279 280 282 285 283 271 264 266 269 271 273 270 269 269 269 270 272
291 282 284 300 303 301 298 287 277 275 272 272 274 278 283 281 282 285 288 288 283 278 278 278 277 276 276 278 277 275 275 275 276 275 274 274 276 277 279 281 283 283 279 275 277 280 279 277 279 280 276 272 270 271 272 273 277 281 278 273 272 275 278 279 276 273 274 275 276 278 278 278 279 281 286 287 278 271 271 272 274 275 273 271 271 271 273 275
286 283 287 294 298 300 295 282 276 276 273 276 278 280 283 281 280 282 285 287 285 282 281 279 278 279 278 276 277 277 277 276 274 274 274 274 275 276 280 285 285 283 281 277 278 282 282 279 279 278 275 274 274 274 274 275 277 278 274 272 274 276 278 278 277 277 278 276 276 277 276 276 278 279 284 284 277 273 274 274 275 276 275 274 273 273 274 275
284 286 286 286 293 298 289 276 276 277 275 279 281 282 283 281 280 280 280 284 286 283 281 279 278 280 279 278 279 279 278 277 275 274 274 275 275 276 280 285 286 284 283 280 277 282 284 280 278 278 277 276 276 275 274 272 272 273 270 267 269 271 273 274 275 275 275 276 276 276 275 276 279 279 280 283 279 275 274 275 277 278 277 276 276 276 277 275
283 284 281 281 292 295 284 276 278 277 278 281 282 285 284 279 280 280 279 282 283 281 279 277 277 279 279 279 279 278 278 276 274 275 276 276 276 278 279 283 285 286 287 284 279 279 282 281 282 283 283 281 279 278 277 272 270 273 271 265 266 271 273 275 276 275 273 273 273 273 275 278 281 280 279 281 280 276 275 276 277 278 277 276 276 277 278 275
283 280 277 281 291 289 279 276 278 276 280 283 283 286 283 278 281 282 279 278 279 279 277 275 278 280 279 279 278 276 275 275 275 277 278 276 277 278 278 281 284 283 286 291 288 282 279 279 281 281 281 280 280 280 280 279 279 280 278 270 268 273 273 271 274 276 275 275 273 272 276 279 280 279 279 279 278 276 277 277 277 278 276 276 277 276 276 276
283 279 277 282 287 283 273 275 277 276 280 283 283 283 281 279 281 283 280 277 277 278 276 275 279 280 277 277 277 275 274 274 275 277 278 277 277 275 276 281 283 283 285 288 287 283 280 278 277 275 275 276 278 279 280 283 282 280 280 278 275 276 276 273 274 276 277 279 275 272 276 279 279 279 279 279 278 277 277 277 278 278 277 276 276 276 276 275
279 278 279 282 283 279 274 277 279 278 281 283 280 279 280 280 281 281 279 278 277 277 276 277 278 277 275 276 277 276 275 274 274 276 277 278 277 276 278 280 280 284 289 285 280 280 280 278 276 274 274 274 276 277 278 279 279 277 278 278 277 276 277 276 275 276 278 279 276 275 277 279 280 281 281 281 280 280 279 278 278 279 278 276 277 277 276 273
278 278 279 280 278 275 275 278 280 281 281 281 278 277 278 279 279 279 279 279 277 276 276 277 277 276 277 278 278 277 276 275 274 276 277 278 279 279 280 280 278 281 285 282 278 278 277 277 277 276 276 276 276 277 278 278 277 277 278 278 277 276 275 275 275 275 276 276 276 278 280 279 280 280 280 281 281 280 280 279 279 279 279 278 279 277 273 269
280 278 278 279 277 276 277 278 279 280 279 278 277 276 277 278 277 277 278 279 277 275 275 277 277 277 278 278 277 277 276 276 276 277 278 279 280 280 280 280 279 279 281 279 278 278 276 277 279 279 279 278 277 278 279 279 278 277 277 277 276 276 276 275 275 275 275 275 276 278 278 278 278 280 280 281 280 279 279 279 279 279 280 280 280 276 269 267
280 278 278 280 279 276 276 277 277 277 276 276 275 274 274 275 276 277 277 277 278 277 277 277 278 279 278 277 277 276 276 278 278 278 279 279 279 279 278 279 280 280 280 279 278 278 277 278 280 281 280 278 277 277 277 277 277 277 276 275 275 276 276 276 276 276 277 277 278 278 278 278 278 281 282 282 281 280 279 278 278 278 279 278 276 272 269 269
278 277 277 277 276 275 276 276 275 275 274 274 274 274 274 273 274 276 276 276 278 279 278 278 279 279 278 277 276 276 278 279 278 278 279 278 278 278 278 278 280 280 280 279 278 278 278 278 280 280 278 276 277 277 277 277 278 276 274 274 275 276 276 276 277 277 277 277 279 278 278 279 280 282 282 282 281 281 279 279 279 278 278 277 275 273 271 272
278 277 276 275 274 274 275 275 274 274 274 273 274 274 273 274 276 278 278 277 277 277 278 279 279 278 276 276 276 277 279 279 278 278 278 278 278 278 278 277 278 278 278 278 278 277 277 277 278 277 277 277 277 277 279 280 277 273 273 276 278 277 277 278 277 277 277 277 278 277 278 280 282 282 282 282 281 279 278 278 278 277 275 273 273 273 272 272